Weather History for KORE - January, 2013

Change the Weather History Date:

Saturday, January 19, 2013

  Actual Average Record
Temperature  
Mean Temperature 32 °F -  
Max Temperature 42 °F 26 °F 42 °F (1999)
Min Temperature 23 °F 7 °F -15 °F (2003)
Degree Days  
Heating Degree Days 32    
Moisture  
Dew Point 18 °F    
Average Humidity 60    
Maximum Humidity 92    
Minimum Humidity 45    
Precipitation  
Precipitation 0.00 in - - ()
Sea Level Pressure  
Sea Level Pressure 30.09 in    
Wind  
Wind Speed 11 mph (South)    
Max Wind Speed 18 mph    
Max Gust Speed 25 mph    
Visibility 10 miles    
Events      
Averages and records for this station are not official NWS values.
T = Trace of Precipitation, MM = Missing Value Source: NWS Daily Summary

Daily Weather History Graph

Daily Weather History Graph

Search for Another Location

Airport or City:

Trip Planner

Search our weather history database for the weather conditions in past years. The results will help you decide how hot, cold, wet, or windy it might be!

Date:

Astronomy

Jan. 19, 2013 Rise Set
Actual Time 7:14 AM EST 4:46 PM EST
Civil Twilight 6:43 AM EST 5:17 PM EST
Nautical Twilight 6:08 AM EST 5:51 PM EST
Astronomical Twilight 5:35 AM EST 6:25 PM EST
Moon 11:12 AM EST (1/19) 12:43 AM EST (1/19)
Length of Visible Light 10h 34m
Length of Day
9h 32m
First Quarter, 57% of the Moon is Illuminated
Jan 19
First Quarter
Jan 26
Full
Feb 3
Last Quarter
Feb 10
New
Feb 17
First Quarter

Hourly Weather History & Observations

Time (EST) Temp. Windchill Dew Point Humidity Pressure Visibility Wind Dir Wind Speed Gust Speed Precip Events Conditions
12:52 AM 23.0 °F 11.7 °F 6.1 °F 48% 30.32 in 10.0 mi South 11.5 mph - N/A   Overcast
1:52 AM 24.1 °F 13.1 °F 8.1 °F 51% 30.30 in 10.0 mi SSW 11.5 mph 21.9 mph N/A   Overcast
2:52 AM 24.1 °F 12.5 °F 9.0 °F 53% 30.30 in 10.0 mi SSW 12.7 mph - N/A   Overcast
3:52 AM 24.1 °F 12.0 °F 10.0 °F 55% 30.25 in 10.0 mi South 13.8 mph 19.6 mph N/A   Mostly Cloudy
4:52 AM 25.0 °F 13.6 °F 10.9 °F 55% 30.22 in 10.0 mi SSW 12.7 mph - N/A   Scattered Clouds
5:52 AM 26.1 °F 14.0 °F 12.0 °F 55% 30.20 in 10.0 mi South 15.0 mph 18.4 mph N/A   Partly Cloudy
6:52 AM 27.0 °F 15.6 °F 12.9 °F 56% 30.19 in 10.0 mi SSW 13.8 mph 23.0 mph N/A   Overcast
7:52 AM 28.9 °F 18.2 °F 15.1 °F 56% 30.17 in 10.0 mi South 13.8 mph - N/A   Overcast
8:52 AM 30.0 °F 19.1 °F 16.0 °F 56% 30.17 in 10.0 mi South 15.0 mph 21.9 mph N/A   Mostly Cloudy
9:52 AM 32.0 °F 20.5 °F 18.0 °F 56% 30.16 in 10.0 mi South 18.4 mph 25.3 mph N/A   Overcast
10:52 AM 33.1 °F 24.9 °F 19.0 °F 56% 30.13 in 10.0 mi South 10.4 mph - N/A   Overcast
11:52 AM 36.0 °F 28.0 °F 19.9 °F 52% 30.08 in 10.0 mi South 11.5 mph 20.7 mph N/A   Clear
12:52 PM 39.0 °F 32.3 °F 21.0 °F 49% 30.04 in 10.0 mi South 10.4 mph 21.9 mph N/A   Clear
1:52 PM 39.9 °F 33.4 °F 21.9 °F 49% 30.01 in 10.0 mi South 10.4 mph - N/A   Clear
2:52 PM 42.1 °F 36.1 °F 21.9 °F 45% 30.00 in 10.0 mi South 10.4 mph - N/A   Clear
4:52 PM 41.0 °F 36.4 °F 23.0 °F 49% 29.99 in 10.0 mi South 6.9 mph - N/A   Clear
5:52 PM 39.0 °F 34.8 °F 24.1 °F 55% 29.99 in 10.0 mi South 5.8 mph - N/A   Clear
6:52 PM 37.9 °F 32.7 °F 24.1 °F 57% 29.99 in 10.0 mi South 6.9 mph - N/A   Clear
7:52 PM 28.0 °F - 23.0 °F 81% 29.98 in 8.0 mi Calm Calm - N/A   Clear
8:52 PM 26.1 °F - 23.0 °F 88% 29.96 in 10.0 mi Calm Calm - N/A   Clear
9:52 PM 26.1 °F - 21.9 °F 84% 29.93 in 9.0 mi Calm Calm - N/A   Clear
10:52 PM 25.0 °F 20.7 °F 23.0 °F 92% 29.89 in 9.0 mi NNW 3.5 mph - N/A   Clear
11:52 PM 28.9 °F - 25.0 °F 85% 29.86 in 9.0 mi Calm Calm - N/A   Clear